,,Stat6,,Stat2,,Stat8,,Stat9,,Stat10,,Wind1,,Wind1,
time,status,PA1M_AVG,status,PR1M_SUM,status,RH1M_AVG,status,SR1M_AVG,status,TA1M_AVG,status,W1dAve1m,status,W1sAve1m,
2005-02-25, 00:00:00,VALID,918.418,VALID,0,VALID,99.7701,VALID,0,VALID,20.0852,VALID,102,VALID,0.490513,
2005-02-25, 00:01:00,VALID,918.432,VALID,0,VALID,99.7421,VALID,0,VALID,20.0922,VALID,102,VALID,0.249428,
2005-02-25, 00:02:00,VALID,918.435,VALID,0,VALID,99.7917,VALID,0,VALID,20.0723,VALID,102,VALID,0.266578,
2005-02-25, 00:03:00,VALID,918.438,VALID,0,VALID,99.7841,VALID,0.0339617,VALID,20.0952,VALID,102,VALID,0.34446,
2005-02-25, 00:04:00,VALID,918.424,VALID,0,VALID,99.648,VALID,0,VALID,20.0852,VALID,102,VALID,0.486506,
2005-02-25, 00:05:00,VALID,918.407,VALID,0,VALID,99.6239,VALID,0,VALID,20.0467,VALID,102,VALID,0.598028,
2005-02-25, 00:06:00,VALID,918.405,VALID,0,VALID,99.6086,VALID,-0.0339617,VALID,20.011,VALID,104,VALID,0.763194,
2005-02-25, 00:07:00,VALID,918.401,VALID,0,VALID,99.615,VALID,0,VALID,19.9916,VALID,111,VALID,0.827217,
2005-02-25, 00:08:00,VALID,918.397,VALID,0,VALID,99.8171,VALID,0.0169808,VALID,19.9787,VALID,122,VALID,0.9641,
2005-02-25, 00:09:00,VALID,918.39,VALID,0,VALID,99.896,VALID,0,VALID,20.008,VALID,129,VALID,0.840774,
2005-02-25, 00:10:00,VALID,918.379,VALID,0,VALID,99.929,VALID,-0.0169808,VALID,20.0338,VALID,139,VALID,0.734553,
2005-02-25, 00:11:00,VALID,918.376,VALID,0,VALID,99.9392,VALID,0,VALID,20.0594,VALID,141,VALID,0.718559,
2005-02-25, 00:12:00,VALID,918.355,VALID,0,VALID,99.8985,VALID,0,VALID,20.1054,VALID,148,VALID,0.733994,
2005-02-25, 00:13:00,VALID,918.341,VALID,0,VALID,99.821,VALID,0.0169808,VALID,20.131,VALID,156,VALID,0.884001,
2005-02-25, 00:14:00,VALID,918.334,VALID,0,VALID,99.7587,VALID,0,VALID,20.1466,VALID,156,VALID,0.742006,
2005-02-25, 00:15:00,VALID,918.321,VALID,0,VALID,99.6595,VALID,0.0169808,VALID,20.1757,VALID,180,VALID,0.602108,
2005-02-25, 00:16:00,VALID,918.311,VALID,0,VALID,99.4585,VALID,-0.0169808,VALID,20.1757,VALID,175,VALID,0.749155,
2005-02-25, 00:17:00,VALID,918.303,VALID,0,VALID,99.3568,VALID,0,VALID,20.1888,VALID,178,VALID,1.05004,
2005-02-25, 00:18:00,VALID,918.302,VALID,0,VALID,99.1356,VALID,0,VALID,20.1757,VALID,173,VALID,1.18992,
2005-02-25, 00:19:00,VALID,918.305,VALID,0,VALID,99.072,VALID,0,VALID,20.1727,VALID,167,VALID,1.1436,
2005-02-25, 00:20:00,VALID,918.3,VALID,0,VALID,98.9537,VALID,-0.0169808,VALID,20.1436,VALID,167,VALID,0.573438,
2005-02-25, 00:21:00,VALID,918.306,VALID,0,VALID,99.0923,VALID,-0.0169808,VALID,20.1213,VALID,164,VALID,0.55522,
2005-02-25, 00:22:00,VALID,918.296,VALID,0,VALID,99.1941,VALID,-0.0849042,VALID,20.1126,VALID,157,VALID,0.518787,
2005-02-25, 00:23:00,VALID,918.305,VALID,0,VALID,99.2805,VALID,-0.101885,VALID,20.1032,VALID,148,VALID,0.794389,
2005-02-25, 00:24:00,VALID,918.296,VALID,0,VALID,99.4853,VALID,-0.101885,VALID,20.1293,VALID,149,VALID,0.894626,
2005-02-25, 00:25:00,VALID,918.287,VALID,0,VALID,99.5183,VALID,-0.101885,VALID,20.1543,VALID,151,VALID,0.848028,
2005-02-25, 00:26:00,VALID,918.303,VALID,0,VALID,99.4522,VALID,-0.101885,VALID,20.1869,VALID,127,VALID,0.640067,
2005-02-25, 00:27:00,VALID,918.293,VALID,0,VALID,99.2856,VALID,-0.101885,VALID,20.216,VALID,118,VALID,0.680575,
2005-02-25, 00:28:00,VALID,918.278,VALID,0,VALID,99.1902,VALID,-0.0679233,VALID,20.2222,VALID,125,VALID,0.673242,
2005-02-25, 00:29:00,VALID,918.274,VALID,0,VALID,99.1063,VALID,-0.101885,VALID,20.248,VALID,124,VALID,0.755145,
2005-02-25, 00:30:00,VALID,918.264,VALID,0,VALID,98.9893,VALID,-0.101885,VALID,20.2649,VALID,124,VALID,0.776414,
2005-02-25, 00:31:00,VALID,918.261,VALID,0,VALID,98.8914,VALID,-0.135847,VALID,20.2867,VALID,115,VALID,0.995028,
2005-02-25, 00:32:00,VALID,918.262,VALID,0,VALID,98.7058,VALID,-0.101885,VALID,20.3161,VALID,100,VALID,0.85883,
2005-02-25, 00:33:00,VALID,918.262,VALID,0,VALID,98.5646,VALID,-0.101885,VALID,20.329,VALID,100,VALID,0.995536,
2005-02-25, 00:34:00,VALID,918.249,VALID,0,VALID,98.4616,VALID,-0.101885,VALID,20.3322,VALID,100,VALID,0.881541,
2005-02-25, 00:35:00,VALID,918.252,VALID,0,VALID,98.4692,VALID,-0.101885,VALID,20.3292,VALID,115,VALID,0.928199,
2005-02-25, 00:36:00,VALID,918.234,VALID,0,VALID,98.5926,VALID,-0.101885,VALID,20.2999,VALID,130,VALID,0.651736,
2005-02-25, 00:37:00,VALID,918.206,VALID,0,VALID,98.7833,VALID,-0.101885,VALID,20.2676,VALID,127,VALID,0.949505,
2005-02-25, 00:38:00,VALID,918.159,VALID,0,VALID,99.0097,VALID,-0.0849042,VALID,20.2289,VALID,129,VALID,0.870593,
2005-02-25, 00:39:00,VALID,918.132,VALID,0,VALID,99.2182,VALID,-0.0849042,VALID,20.1864,VALID,132,VALID,0.866997,
2005-02-25, 00:40:00,VALID,918.097,VALID,0,VALID,99.3784,VALID,-0.101885,VALID,20.1578,VALID,136,VALID,0.863477,
2005-02-25, 00:41:00,VALID,918.082,VALID,0,VALID,99.5247,VALID,-0.0849042,VALID,20.1086,VALID,132,VALID,0.613467,
2005-02-25, 00:42:00,VALID,918.058,VALID,0,VALID,99.6518,VALID,-0.0849042,VALID,20.0967,VALID,132,VALID,0.862153,
2005-02-25, 00:43:00,VALID,918.044,VALID,0,VALID,99.7777,VALID,-0.101885,VALID,20.0607,VALID,130,VALID,0.716667,
2005-02-25, 00:44:00,VALID,918.044,VALID,0,VALID,99.9112,VALID,-0.0679233,VALID,20.0413,VALID,127,VALID,0.59032,
2005-02-25, 00:45:00,VALID,918.043,VALID,0,VALID,99.9891,VALID,-0.0849042,VALID,20.0252,VALID,127,VALID,0.72904,
2005-02-25, 00:46:00,VALID,918.037,VALID,0,VALID,100,VALID,-0.101885,VALID,19.9993,VALID,126,VALID,0.469993,
2005-02-25, 00:47:00,VALID,918.045,VALID,0,VALID,100,VALID,-0.0849042,VALID,19.9929,VALID,126,VALID,0.448946,
2005-02-25, 00:48:00,VALID,918.049,VALID,0,VALID,100,VALID,-0.101885,VALID,19.9894,VALID,124,VALID,0.650641,
2005-02-25, 00:49:00,VALID,918.055,VALID,0,VALID,100,VALID,-0.0849042,VALID,20.009,VALID,127,VALID,0.452398,
2005-02-25, 00:50:00,VALID,918.067,VALID,0,VALID,100,VALID,-0.0849042,VALID,20.0257,VALID,128,VALID,0.594638,
2005-02-25, 00:51:00,VALID,918.078,VALID,0,VALID,100,VALID,-0.0849042,VALID,20.0599,VALID,121,VALID,0.497713,
2005-02-25, 00:52:00,VALID,918.086,VALID,0,VALID,100,VALID,0,VALID,20.1141,VALID,119,VALID,0.332961,
2005-02-25, 00:53:00,VALID,918.106,VALID,0,VALID,100,VALID,0.0339617,VALID,20.1426,VALID,119,VALID,0.238554,
2005-02-25, 00:54:00,VALID,918.11,VALID,0,VALID,100,VALID,0.0169808,VALID,20.156,VALID,119,VALID,0.070122,
2005-02-25, 00:55:00,VALID,918.12,VALID,0,VALID,100,VALID,0.0509425,VALID,20.1754,VALID,119,VALID,0.000372024,
2005-02-25, 00:56:00,VALID,918.117,VALID,0,VALID,100,VALID,0,VALID,20.1657,VALID,119,VALID,0.317264,
2005-02-25, 00:57:00,VALID,918.113,VALID,0,VALID,100,VALID,0.0169808,VALID,20.1563,VALID,119,VALID,0.209077,
2005-02-25, 00:58:00,VALID,918.103,VALID,0,VALID,100,VALID,0.0169808,VALID,20.1431,VALID,121,VALID,0.352564,
2005-02-25, 00:59:00,VALID,918.099,VALID,0,VALID,100,VALID,-0.0169808,VALID,20.127,VALID,135,VALID,0.632254,
2005-02-25, 01:00:00,VALID,918.095,VALID,0,VALID,100,VALID,0,VALID,20.1334,VALID,117,VALID,0.699479,
2005-02-25, 01:01:00,VALID,918.104,VALID,0,VALID,100,VALID,0,VALID,20.1431,VALID,125,VALID,0.804276,
2005-02-25, 01:02:00,VALID,918.098,VALID,0,VALID,100,VALID,-0.0169808,VALID,20.1528,VALID,123,VALID,0.829578,
2005-02-25, 01:03:00,VALID,918.084,VALID,0,VALID,100,VALID,0,VALID,20.159,VALID,106,VALID,0.901042,
2005-02-25, 01:04:00,VALID,918.071,VALID,0,VALID,100,VALID,0,VALID,20.195,VALID,105,VALID,1.16425,
2005-02-25, 01:05:00,VALID,918.059,VALID,0,VALID,100,VALID,-0.0169808,VALID,20.201,VALID,112,VALID,1.11133,
2005-02-25, 01:06:00,VALID,918.032,VALID,0,VALID,100,VALID,-0.0339617,VALID,20.2663,VALID,106,VALID,1.51867,
2005-02-25, 01:07:00,VALID,917.997,VALID,0,VALID,100,VALID,0.0169808,VALID,20.3113,VALID,104,VALID,1.17485,
2005-02-25, 01:08:00,VALID,917.957,VALID,0,VALID,100,VALID,0,VALID,20.3202,VALID,96,VALID,0.858803,
2005-02-25, 01:09:00,VALID,917.932,VALID,0,VALID,100,VALID,0,VALID,20.3043,VALID,93,VALID,0.87064,
2005-02-25, 01:10:00,VALID,917.912,VALID,0,VALID,100,VALID,0,VALID,20.2879,VALID,103,VALID,0.840216,
2005-02-25, 01:11:00,VALID,917.893,VALID,0,VALID,100,VALID,-0.0169808,VALID,20.2753,VALID,81,VALID,0.767624,
2005-02-25, 01:12:00,VALID,917.883,VALID,0,VALID,100,VALID,0,VALID,20.2559,VALID,75,VALID,0.710227,
2005-02-25, 01:13:00,VALID,917.877,VALID,0,VALID,100,VALID,0,VALID,20.2303,VALID,71,VALID,0.741186,
2005-02-25, 01:14:00,VALID,917.854,VALID,0,VALID,100,VALID,0.0169808,VALID,20.2075,VALID,69,VALID,0.752096,
2005-02-25, 01:15:00,VALID,917.844,VALID,0,VALID,100,VALID,-0.0169808,VALID,20.2109,VALID,69,VALID,0.76684,
2005-02-25, 01:16:00,VALID,917.827,VALID,0,VALID,100,VALID,0,VALID,20.2174,VALID,69,VALID,0.664463,
2005-02-25, 01:17:00,VALID,917.811,VALID,0,VALID,100,VALID,-0.0169808,VALID,20.2204,VALID,70,VALID,0.632431,
2005-02-25, 01:18:00,VALID,917.772,VALID,0,VALID,100,VALID,0,VALID,20.2403,VALID,91,VALID,0.790698,
2005-02-25, 01:19:00,VALID,917.755,VALID,0,VALID,100,VALID,0,VALID,20.2723,VALID,98,VALID,0.700921,
2005-02-25, 01:20:00,VALID,917.726,VALID,0,VALID,100,VALID,-0.0339617,VALID,20.3242,VALID,101,VALID,0.612282,
2005-02-25, 01:21:00,VALID,917.705,VALID,0,VALID,100,VALID,0,VALID,20.3565,VALID,102,VALID,0.734557,
2005-02-25, 01:22:00,VALID,917.683,VALID,0,VALID,100,VALID,0,VALID,20.3888,VALID,101,VALID,0.635861,
2005-02-25, 01:23:00,VALID,917.655,VALID,0,VALID,100,VALID,-0.0169808,VALID,20.4211,VALID,101,VALID,0.681021,
2005-02-25, 01:24:00,VALID,917.634,VALID,0,VALID,100,VALID,-0.0169808,VALID,20.447,VALID,103,VALID,0.783537,
2005-02-25, 01:25:00,VALID,917.616,VALID,0,VALID,99.9967,VALID,-0.0169808,VALID,20.4532,VALID,110,VALID,0.822674,
2005-02-25, 01:26:00,VALID,917.59,VALID,0,VALID,99.9529,VALID,-0.0169808,VALID,20.4631,VALID,112,VALID,0.943859,
2005-02-25, 01:27:00,VALID,917.566,VALID,0,VALID,99.924,VALID,0,VALID,20.4889,VALID,115,VALID,0.659598,
2005-02-25, 01:28:00,VALID,917.541,VALID,0,VALID,99.8833,VALID,-0.0169808,VALID,20.4825,VALID,116,VALID,0.528011,
2005-02-25, 01:29:00,VALID,917.518,VALID,0,VALID,99.9011,VALID,0,VALID,20.4889,VALID,117,VALID,0.382994,
2005-02-25, 01:30:00,VALID,917.486,VALID,0,VALID,99.8489,VALID,0,VALID,20.4984,VALID,117,VALID,0.293308,
2005-02-25, 01:31:00,VALID,917.465,VALID,0,VALID,99.8082,VALID,-0.0339617,VALID,20.4954,VALID,117,VALID,0.136533,
2005-02-25, 01:32:00,VALID,917.458,VALID,0,VALID,99.6111,VALID,-0.0169808,VALID,20.4599,VALID,117,VALID,0.0374273,
2005-02-25, 01:33:00,VALID,917.459,VALID,0,VALID,99.0987,VALID,0,VALID,20.3501,VALID,117,VALID,0.255335,
2005-02-25, 01:34:00,VALID,917.439,VALID,0,VALID,99.002,VALID,0,VALID,20.2397,VALID,117,VALID,0.123365,
2005-02-25, 01:35:00,VALID,917.418,VALID,0,VALID,99.4268,VALID,-0.0169808,VALID,20.2311,VALID,117,VALID,0.0517361,
2005-02-25, 01:36:00,VALID,917.396,VALID,0,VALID,99.6849,VALID,0,VALID,20.2335,VALID,117,VALID,0.379092,
2005-02-25, 01:37:00,VALID,917.37,VALID,0,VALID,99.7701,VALID,-0.0339617,VALID,20.2099,VALID,117,VALID,0.428052,
2005-02-25, 01:38:00,VALID,917.342,VALID,0,VALID,99.6773,VALID,0,VALID,20.2082,VALID,112,VALID,0.525568,
2005-02-25, 01:39:00,VALID,917.315,VALID,0,VALID,99.3085,VALID,0,VALID,20.0912,VALID,82,VALID,0.591933,
2005-02-25, 01:40:00,VALID,917.285,VALID,0,VALID,99.2271,VALID,0,VALID,19.9983,VALID,66,VALID,0.635538,
2005-02-25, 01:41:00,VALID,917.262,VALID,0,VALID,99.5158,VALID,0,VALID,19.9461,VALID,70,VALID,0.338299,
2005-02-25, 01:42:00,VALID,917.242,VALID,0,VALID,99.826,VALID,-0.0169808,VALID,19.9528,VALID,102,VALID,0.357973,
2005-02-25, 01:43:00,VALID,917.221,VALID,0,VALID,99.9519,VALID,-0.0169808,VALID,19.9598,VALID,103,VALID,0.429297,
2005-02-25, 01:44:00,VALID,917.225,VALID,0,VALID,99.9392,VALID,-0.0509425,VALID,19.9464,VALID,103,VALID,0.230824,
2005-02-25, 01:45:00,VALID,917.22,VALID,0,VALID,99.8235,VALID,0,VALID,19.9138,VALID,103,VALID,0.216087,
2005-02-25, 01:46:00,VALID,917.199,VALID,0,VALID,99.8667,VALID,0,VALID,19.8821,VALID,100,VALID,0.560138,
2005-02-25, 01:47:00,VALID,917.169,VALID,0,VALID,99.9799,VALID,0,VALID,19.8686,VALID,101,VALID,0.689967,
2005-02-25, 01:48:00,VALID,917.139,VALID,0,VALID,99.8947,VALID,0.0169808,VALID,19.8465,VALID,82,VALID,0.829545,
2005-02-25, 01:49:00,VALID,917.105,VALID,0,VALID,99.7091,VALID,0,VALID,19.8041,VALID,76,VALID,0.65968,
2005-02-25, 01:50:00,VALID,917.08,VALID,0,VALID,99.7129,VALID,0,VALID,19.7363,VALID,101,VALID,0.981908,
2005-02-25, 01:51:00,VALID,917.042,VALID,0,VALID,99.8769,VALID,0,VALID,19.7459,VALID,88,VALID,1.10379,
2005-02-25, 01:52:00,VALID,917.009,VALID,0,VALID,99.7968,VALID,0,VALID,19.7656,VALID,63,VALID,0.94401,
2005-02-25, 01:53:00,VALID,916.99,VALID,0,VALID,99.6938,VALID,-0.0509425,VALID,19.7792,VALID,51,VALID,1.04723,
2005-02-25, 01:54:00,VALID,916.977,VALID,0,VALID,99.6671,VALID,-0.0339617,VALID,19.8078,VALID,44,VALID,0.914621,
2005-02-25, 01:55:00,VALID,916.961,VALID,0,VALID,99.6022,VALID,-0.0169808,VALID,19.8269,VALID,44,VALID,0.57066,
2005-02-25, 01:56:00,VALID,916.955,VALID,0,VALID,99.4725,VALID,-0.0339617,VALID,19.8274,VALID,44,VALID,0.351944,
2005-02-25, 01:57:00,VALID,916.951,VALID,0,VALID,99.5132,VALID,0,VALID,19.8048,VALID,44,VALID,0.0456321,
2005-02-25, 01:58:00,VALID,916.953,VALID,0,VALID,99.6493,VALID,-0.0339617,VALID,19.8212,VALID,80,VALID,0.33085,
2005-02-25, 01:59:00,VALID,916.939,VALID,0,VALID,99.7078,VALID,-0.0509425,VALID,19.8075,VALID,87,VALID,0.274709,
2005-02-25, 02:00:00,VALID,916.923,VALID,0,VALID,99.7065,VALID,-0.0169808,VALID,19.8046,VALID,145,VALID,0.469271,
2005-02-25, 02:01:00,VALID,916.912,VALID,0,VALID,99.7663,VALID,-0.0339617,VALID,19.8013,VALID,170,VALID,0.274346,
2005-02-25, 02:02:00,VALID,916.901,VALID,0,VALID,99.8171,VALID,-0.0169808,VALID,19.8013,VALID,152,VALID,0.410689,
2005-02-25, 02:03:00,VALID,916.896,VALID,0,VALID,99.9214,VALID,-0.0169808,VALID,19.7949,VALID,158,VALID,0.764137,
2005-02-25, 02:04:00,VALID,916.894,VALID,0,VALID,99.9964,VALID,-0.0169808,VALID,19.8177,VALID,159,VALID,0.571456,
2005-02-25, 02:05:00,VALID,916.9,VALID,0,VALID,100,VALID,-0.0339617,VALID,19.8267,VALID,156,VALID,0.38186,
2005-02-25, 02:06:00,VALID,916.901,VALID,0,VALID,100,VALID,-0.0169808,VALID,19.8436,VALID,189,VALID,0.606468,
2005-02-25, 02:07:00,VALID,916.92,VALID,0,VALID,100,VALID,-0.0509425,VALID,19.8667,VALID,216,VALID,0.719727,
2005-02-25, 02:08:00,VALID,916.953,VALID,0,VALID,100,VALID,-0.0339617,VALID,19.9151,VALID,207,VALID,0.513626,
2005-02-25, 02:09:00,VALID,916.975,VALID,0,VALID,100,VALID,-0.0339617,VALID,19.9504,VALID,219,VALID,0.459722,
2005-02-25, 02:10:00,VALID,917.008,VALID,0,VALID,100,VALID,0,VALID,19.966,VALID,234,VALID,0.652439,
2005-02-25, 02:11:00,VALID,917.025,VALID,0,VALID,100,VALID,-0.0339617,VALID,19.9658,VALID,241,VALID,0.603237,
2005-02-25, 02:12:00,VALID,917.037,VALID,0,VALID,100,VALID,-0.0169808,VALID,19.976,VALID,220,VALID,0.526786,
2005-02-25, 02:13:00,VALID,917.023,VALID,0,VALID,100,VALID,-0.0679233,VALID,19.9924,VALID,232,VALID,0.449574,
2005-02-25, 02:14:00,VALID,917.019,VALID,0,VALID,100,VALID,-0.0169808,VALID,19.9886,VALID,230,VALID,0.171693,
2005-02-25, 02:15:00,VALID,917.005,VALID,0,VALID,99.9667,VALID,-0.0509425,VALID,19.9697,VALID,212,VALID,0.106836,
2005-02-25, 02:16:00,VALID,916.993,VALID,0,VALID,99.8667,VALID,-0.0339617,VALID,19.9345,VALID,212,VALID,0.0207741,
2005-02-25, 02:17:00,VALID,917,VALID,0,VALID,99.8667,VALID,-0.0509425,VALID,19.9049,VALID,141,VALID,0.44972,
2005-02-25, 02:18:00,VALID,916.999,VALID,0,VALID,99.8515,VALID,-0.0339617,VALID,19.8796,VALID,134,VALID,0.433321,
2005-02-25, 02:19:00,VALID,916.989,VALID,0,VALID,99.9341,VALID,-0.0339617,VALID,19.8597,VALID,132,VALID,0.586483,
2005-02-25, 02:20:01,VALID,916.997,VALID,0,VALID,100,VALID,-0.0509425,VALID,19.8662,VALID,131,VALID,0.539634,
2005-02-25, 02:21:01,VALID,916.999,VALID,0,VALID,100,VALID,-0.0339617,VALID,19.8855,VALID,130,VALID,0.275,
2005-02-25, 02:22:00,VALID,916.984,VALID,0,VALID,100,VALID,-0.0509425,VALID,19.8987,VALID,130,VALID,0.212081,
2005-02-25, 02:23:01,VALID,916.98,VALID,0,VALID,99.9636,VALID,-0.0169808,VALID,19.8922,VALID,130,VALID,0.0386814,
2005-02-25, 02:24:00,VALID,916.97,VALID,0,VALID,99.7447,VALID,-0.0509425,VALID,19.8277,VALID,130,VALID,0.0984375,
2005-02-25, 02:25:00,VALID,916.958,VALID,0,VALID,99.9715,VALID,-0.0339617,VALID,19.8374,VALID,130,VALID,0.161515,
2005-02-25, 02:26:00,VALID,916.957,VALID,0,VALID,100,VALID,-0.0169808,VALID,19.8699,VALID,123,VALID,0.218178,
2005-02-25, 02:27:00,VALID,916.957,VALID,0,VALID,99.9977,VALID,0,VALID,19.8465,VALID,101,VALID,0.745999,
2005-02-25, 02:28:01,VALID,916.978,VALID,0,VALID,100,VALID,-0.0169808,VALID,19.8826,VALID,140,VALID,0.443403,
2005-02-25, 02:29:00,VALID,917.007,VALID,0,VALID,100,VALID,0,VALID,19.9211,VALID,141,VALID,0.294922,
2005-02-25, 02:30:00,VALID,917.045,VALID,0,VALID,100,VALID,-0.0339617,VALID,19.9603,VALID,137,VALID,0.15625,
2005-02-25, 02:31:00,VALID,917.068,VALID,0,VALID,100,VALID,-0.0339617,VALID,19.9921,VALID,138,VALID,0.74314,
2005-02-25, 02:32:00,VALID,917.108,VALID,0,VALID,100,VALID,-0.0169808,VALID,20.0443,VALID,134,VALID,0.362043,
2005-02-25, 02:33:00,VALID,917.136,VALID,0,VALID,100,VALID,0,VALID,20.0666,VALID,148,VALID,0.578303,
2005-02-25, 02:34:00,VALID,917.156,VALID,0,VALID,100,VALID,0,VALID,20.1049,VALID,122,VALID,0.411719,
2005-02-25, 02:35:01,VALID,917.163,VALID,0,VALID,100,VALID,0.0169808,VALID,20.1016,VALID,159,VALID,0.654726,
2005-02-25, 02:36:00,VALID,917.171,VALID,0,VALID,100,VALID,-0.0169808,VALID,20.1116,VALID,137,VALID,0.670015,
2005-02-25, 02:37:00,VALID,917.156,VALID,0,VALID,100,VALID,-0.0169808,VALID,20.1344,VALID,139,VALID,0.763021,
2005-02-25, 02:38:00,VALID,917.132,VALID,0,VALID,100,VALID,0,VALID,20.1374,VALID,113,VALID,0.473958,
2005-02-25, 02:39:00,VALID,917.096,VALID,0,VALID,100,VALID,0,VALID,20.1178,VALID,109,VALID,0.543155,
2005-02-25, 02:40:01,VALID,917.071,VALID,0,VALID,99.9413,VALID,-0.0509425,VALID,20.0994,VALID,85,VALID,0.614025,
2005-02-25, 02:41:00,VALID,917.043,VALID,0,VALID,99.8044,VALID,0,VALID,20.0338,VALID,70,VALID,0.966346,
2005-02-25, 02:42:00,VALID,917.02,VALID,0,VALID,99.9163,VALID,-0.0339617,VALID,20.015,VALID,67,VALID,0.840625,
2005-02-25, 02:43:00,VALID,916.996,VALID,0,VALID,99.8426,VALID,-0.0169808,VALID,19.963,VALID,66,VALID,0.727257,
2005-02-25, 02:44:01,VALID,916.983,VALID,0,VALID,99.8578,VALID,-0.0849042,VALID,19.931,VALID,66,VALID,0.635861,
2005-02-25, 02:45:00,VALID,916.962,VALID,0,VALID,99.9753,VALID,-0.0169808,VALID,19.9119,VALID,66,VALID,0.599702,
2005-02-25, 02:46:01,VALID,916.942,VALID,0,VALID,100,VALID,-0.0509425,VALID,19.9407,VALID,79,VALID,0.698847,
2005-02-25, 02:47:00,VALID,916.927,VALID,0,VALID,100,VALID,-0.0339617,VALID,19.9598,VALID,86,VALID,0.764931,
2005-02-25, 02:48:00,VALID,916.915,VALID,0,VALID,100,VALID,-0.0169808,VALID,19.9695,VALID,87,VALID,0.885603,
2005-02-25, 02:49:00,VALID,916.916,VALID,0,VALID,100,VALID,-0.0509425,VALID,19.9697,VALID,98,VALID,0.942578,
2005-02-25, 02:50:00,VALID,916.9,VALID,0,VALID,100,VALID,-0.0509425,VALID,19.97,VALID,109,VALID,0.972556,
2005-02-25, 02:51:01,VALID,916.885,VALID,0,VALID,99.9743,VALID,-0.0169808,VALID,19.9762,VALID,102,VALID,1.09784,
2005-02-25, 02:52:01,VALID,916.876,VALID,0,VALID,99.9023,VALID,0,VALID,19.9921,VALID,111,VALID,1.18921,
2005-02-25, 02:53:00,VALID,916.879,VALID,0,VALID,99.779,VALID,-0.0169808,VALID,20.0082,VALID,105,VALID,1.27671,
2005-02-25, 02:54:00,VALID,916.875,VALID,0,VALID,99.5844,VALID,0.0339617,VALID,20.0207,VALID,111,VALID,1.14583,
2005-02-25, 02:55:00,VALID,916.868,VALID,0,VALID,99.4903,VALID,0.0169808,VALID,20.04,VALID,107,VALID,1.07889,
2005-02-25, 02:56:01,VALID,916.879,VALID,0,VALID,99.4115,VALID,0.0169808,VALID,20.0435,VALID,108,VALID,0.980183,
2005-02-25, 02:57:00,VALID,916.87,VALID,0,VALID,99.3823,VALID,-0.0169808,VALID,20.0368,VALID,108,VALID,0.886533,
2005-02-25, 02:58:00,VALID,916.874,VALID,0,VALID,99.2525,VALID,-0.0169808,VALID,20.047,VALID,97,VALID,0.766555,
2005-02-25, 02:59:00,VALID,916.866,VALID,0,VALID,99.2144,VALID,0,VALID,20.0303,VALID,107,VALID,0.760016,
2005-02-25, 03:00:00,VALID,916.859,VALID,0,VALID,99.2258,VALID,0,VALID,20.0271,VALID,108,VALID,0.775213,
2005-02-25, 03:01:00,VALID,916.835,VALID,0,VALID,99.2208,VALID,0,VALID,20.008,VALID,107,VALID,0.719752,
2005-02-25, 03:02:01,VALID,916.826,VALID,0,VALID,99.1305,VALID,0.0339617,VALID,19.9889,VALID,106,VALID,0.486979,
2005-02-25, 03:03:00,VALID,916.798,VALID,0,VALID,99.264,VALID,0,VALID,19.963,VALID,118,VALID,0.874132,
2005-02-25, 03:04:00,VALID,916.792,VALID,0,VALID,99.3797,VALID,0,VALID,19.9504,VALID,124,VALID,0.84048,
2005-02-25, 03:05:00,VALID,916.787,VALID,0,VALID,99.4929,VALID,0,VALID,19.9176,VALID,102,VALID,1.12604,
2005-02-25, 03:06:01,VALID,916.781,VALID,0,VALID,99.6607,VALID,0,VALID,19.8922,VALID,103,VALID,1.08594,
2005-02-25, 03:07:00,VALID,916.774,VALID,0,VALID,99.7014,VALID,-0.0169808,VALID,19.8436,VALID,109,VALID,1.25595,
2005-02-25, 03:08:01,VALID,916.761,VALID,0,VALID,99.7561,VALID,0,VALID,19.8182,VALID,110,VALID,1.3032,
2005-02-25, 03:09:00,VALID,916.753,VALID,0,VALID,99.8871,VALID,0,VALID,19.7946,VALID,114,VALID,1.3432,
2005-02-25, 03:10:00,VALID,916.724,VALID,0,VALID,99.9809,VALID,0,VALID,19.8046,VALID,116,VALID,1.32587,
2005-02-25, 03:11:01,VALID,916.697,VALID,0,VALID,99.9479,VALID,0,VALID,19.8048,VALID,112,VALID,1.17351,
2005-02-25, 03:12:01,VALID,916.676,VALID,0,VALID,99.9929,VALID,0,VALID,19.8145,VALID,119,VALID,1.21484,
2005-02-25, 03:13:01,VALID,916.668,VALID,0,VALID,99.9443,VALID,0,VALID,19.8279,VALID,116,VALID,0.852121,
2005-02-25, 03:14:01,VALID,916.648,VALID,0,VALID,99.8769,VALID,0,VALID,19.808,VALID,128,VALID,0.889672,
2005-02-25, 03:15:00,VALID,916.63,VALID,0,VALID,99.854,VALID,0,VALID,19.7981,VALID,129,VALID,1.13224,
2005-02-25, 03:16:00,VALID,916.616,VALID,0,VALID,99.9023,VALID,0,VALID,19.7852,VALID,133,VALID,1.27003,
2005-02-25, 03:17:00,VALID,916.597,VALID,0,VALID,99.9112,VALID,0,VALID,19.7854,VALID,136,VALID,1.22796,
2005-02-25, 03:18:00,VALID,916.578,VALID,0,VALID,99.8718,VALID,-0.0169808,VALID,19.7631,VALID,137,VALID,1.18626,
2005-02-25, 03:19:00,VALID,916.563,VALID,0,VALID,99.9468,VALID,0,VALID,19.7146,VALID,139,VALID,1.27572,
2005-02-25, 03:20:00,VALID,916.558,VALID,0,VALID,100,VALID,0,VALID,19.6786,VALID,133,VALID,0.977834,
2005-02-25, 03:21:01,VALID,916.557,VALID,0,VALID,100,VALID,-0.0339617,VALID,19.6565,VALID,130,VALID,1.10565,
2005-02-25, 03:22:00,VALID,916.565,VALID,0,VALID,100,VALID,-0.0169808,VALID,19.6339,VALID,142,VALID,0.729167,
2005-02-25, 03:23:00,VALID,916.586,VALID,0,VALID,100,VALID,-0.0509425,VALID,19.6049,VALID,156,VALID,0.337003,
2005-02-25, 03:24:00,VALID,916.6,VALID,0,VALID,100,VALID,0,VALID,19.5852,VALID,140,VALID,0.569568,
2005-02-25, 03:25:00,VALID,916.612,VALID,0,VALID,100,VALID,0,VALID,19.5621,VALID,141,VALID,0.325838,
2005-02-25, 03:26:00,VALID,916.621,VALID,0,VALID,100,VALID,0,VALID,19.5559,VALID,143,VALID,0.330983,
2005-02-25, 03:27:01,VALID,916.633,VALID,0,VALID,100,VALID,0,VALID,19.5666,VALID,146,VALID,0.279762,
2005-02-25, 03:28:01,VALID,916.635,VALID,0,VALID,100,VALID,-0.0339617,VALID,19.5758,VALID,146,VALID,0.22061,
2005-02-25, 03:29:00,VALID,916.637,VALID,0,VALID,100,VALID,-0.0169808,VALID,19.6021,VALID,146,VALID,0.378815,
2005-02-25, 03:30:00,VALID,916.639,VALID,0,VALID,100,VALID,-0.0339617,VALID,19.6153,VALID,146,VALID,0.476749,
2005-02-25, 03:31:00,VALID,916.628,VALID,0,VALID,100,VALID,-0.0339617,VALID,19.615,VALID,137,VALID,0.617898,
2005-02-25, 03:32:01,VALID,916.603,VALID,0,VALID,100,VALID,0,VALID,19.6113,VALID,128,VALID,0.514863,
2005-02-25, 03:33:00,VALID,916.589,VALID,0,VALID,100,VALID,0,VALID,19.6081,VALID,85,VALID,0.627663,
2005-02-25, 03:34:00,VALID,916.551,VALID,0,VALID,100,VALID,-0.0339617,VALID,19.5855,VALID,77,VALID,0.725038,
2005-02-25, 03:35:00,VALID,916.525,VALID,0,VALID,100,VALID,-0.0169808,VALID,19.589,VALID,77,VALID,0.589935,
2005-02-25, 03:36:01,VALID,916.493,VALID,0,VALID,100,VALID,-0.0169808,VALID,19.5634,VALID,63,VALID,0.680804,
2005-02-25, 03:37:00,VALID,916.467,VALID,0,VALID,100,VALID,-0.0169808,VALID,19.502,VALID,48,VALID,0.847202,